{"data":{"norad_id":61516,"intl_designator":"2024-183H","name":"STARLINK-32047","alt_names":[],"object_type":"PAYLOAD","status":"ACTIVE","operator":null,"country":"US","launch_date":"2024-10-15","launch_site_code":"AFETR","launch_vehicle":null,"mission":null,"orbit_class":"UNKNOWN","rcs_meters":null,"size_class":null,"mass_kg":null,"dimensions":null,"purposes":["comms"],"wikipedia_slug":null,"has_3d_model":false,"image_url":null,"decayed_at":null,"tle_current":{"epoch":"2026-05-25T03:37:35.301792Z","epoch_age_seconds":55914,"freshness":"FRESH","line1":"1 61516U 24183H   26145.15110303  .00000320  00000+0  22079-4 0  9997","line2":"2 61516  53.1603 146.9615 0001373  85.2180 274.8979 15.31709253 91360","mean_motion":15.31709253,"eccentricity":0.0001373,"inclination_deg":53.1603,"raan_deg":146.9615,"arg_perigee_deg":85.218,"mean_anomaly_deg":274.8979,"bstar":2.2079e-5,"rev_number":9136,"period_min":94.012620030833,"perigee_km":469.77206562863,"apogee_km":471.65275967735,"semimajor_km":6848.849412653,"source":"CELESTRAK","updated_at":"2026-05-25T13:38:19.369790Z"}}}